Weather History for Phoenix, AZ

Change the Weather History Date:

Sunday, February 24, 2013

  Actual Average Record
Temperature  
Mean Temperature 55 °F 61 °F  
Max Temperature 61 °F 72 °F 91 °F (1904)
Min Temperature 48 °F 50 °F 29 °F (1964)
Degree Days  
Heating Degree Days 10 5  
Month to date heating degree days 175 145  
Since 1 July heating degree days 807 815  
Cooling Degree Days 0 1  
Month to date cooling degree days 3 7  
Year to date cooling degree days 8 9  
Growing Degree Days 4 (Base 50)    
Moisture  
Dew Point 13 °F    
Average Humidity 30    
Maximum Humidity 50    
Minimum Humidity 9    
Precipitation  
Precipitation 0.00 in 0.04 in 1.46 in (1987)
Month to date precipitation 0.31 0.77  
Year to date precipitation 1.70 1.68  
Snow  
Snow 0.00 in - - ()
Month to date snowfall 0.0  
Year to date snowfall 0.0  
Since 1 July snowfall 0.0  
Snow Depth 0.00 in    
Sea Level Pressure  
Sea Level Pressure 29.92 in    
Wind  
Wind Speed 14 mph (NNW)    
Max Wind Speed 29 mph    
Max Gust Speed 38 mph    
Visibility 10 miles    
Events      
T = Trace of Precipitation, MM = Missing Value Source: NWS Daily Summary

Daily Weather History Graph

Daily Weather History Graph

Search for Another Location

Airport:

Trip Planner

Search our weather history database for the weather conditions in past years. The results will help you decide how hot, cold, wet, or windy it might be!

Date:

Astronomy

Feb. 24, 2013 Rise Set
Actual Time 7:01 AM MST 6:20 PM MST
Civil Twilight 6:36 AM MST 6:45 PM MST
Nautical Twilight 6:07 AM MST 7:14 PM MST
Astronomical Twilight 5:39 AM MST 7:43 PM MST
Moon 5:35 PM MST (2/24) 6:00 AM MST (2/24)
Length of Visible Light 12h 09m
Length of Day
11h 19m
Waxing Gibbous, 99% of the Moon is Illuminated
Feb 24
Waxing Gibbous
Feb 25
Full
Mar 4
Last Quarter
Mar 11
New
Mar 19
First Quarter

Hourly Weather History & Observations

Time (MST) Temp. Dew Point Humidity Pressure Visibility Wind Dir Wind Speed Gust Speed Precip Events Conditions
12:51 AM 51.1 °F 34.0 °F 52% 29.81 in 10.0 mi Calm Calm - N/A   Scattered Clouds
1:51 AM 55.0 °F 26.1 °F 33% 29.81 in 10.0 mi North 12.7 mph 18.4 mph N/A   Mostly Cloudy
2:51 AM 54.0 °F 24.1 °F 31% 29.82 in 10.0 mi North 8.1 mph - N/A   Overcast
3:51 AM 53.1 °F 25.0 °F 34% 29.82 in 10.0 mi North 12.7 mph - N/A   Overcast
4:51 AM 52.0 °F 25.0 °F 35% 29.82 in 10.0 mi North 4.6 mph - N/A   Overcast
5:46 AM 50.0 °F 26.6 °F 40% 29.86 in 10.0 mi West 17.3 mph - N/A   Scattered Clouds
5:51 AM 50.0 °F 28.0 °F 43% 29.84 in 10.0 mi WNW 16.1 mph - N/A   Mostly Cloudy
6:51 AM 48.0 °F 27.0 °F 44% 29.86 in 10.0 mi NW 10.4 mph - N/A   Scattered Clouds
7:51 AM 48.0 °F 28.9 °F 48% 29.89 in 10.0 mi WNW 13.8 mph - N/A   Scattered Clouds
8:51 AM 50.0 °F 12.9 °F 23% 29.91 in 10.0 mi NNW 21.9 mph 31.1 mph N/A   Partly Cloudy
9:51 AM 52.0 °F 8.1 °F 17% 29.92 in 10.0 mi NNW 23.0 mph 33.4 mph N/A   Partly Cloudy
10:51 AM 54.0 °F 8.1 °F 16% 29.94 in 10.0 mi NNW 21.9 mph 33.4 mph N/A   Scattered Clouds
11:51 AM 55.0 °F 6.1 °F 14% 29.95 in 10.0 mi North 15.0 mph 31.1 mph N/A   Scattered Clouds
12:51 PM 57.0 °F 3.9 °F 12% 29.93 in 10.0 mi North 23.0 mph 33.4 mph N/A   Scattered Clouds
1:51 PM 59.0 °F 3.0 °F 11% 29.91 in 10.0 mi NW 23.0 mph 35.7 mph N/A   Scattered Clouds
2:51 PM 60.1 °F 3.0 °F 10% 29.92 in 10.0 mi NNW 23.0 mph 31.1 mph N/A   Mostly Cloudy
3:51 PM 60.1 °F -0.0 °F 9% 29.93 in 10.0 mi North 16.1 mph 27.6 mph N/A   Scattered Clouds
4:51 PM 61.0 °F 1.9 °F 9% 29.94 in 10.0 mi North 17.3 mph 23.0 mph N/A   Partly Cloudy
5:51 PM 59.0 °F 3.0 °F 11% 29.96 in 10.0 mi North 13.8 mph 24.2 mph N/A   Partly Cloudy
6:51 PM 57.9 °F 6.1 °F 13% 29.98 in 10.0 mi NNW 6.9 mph - N/A   Partly Cloudy
7:51 PM 57.9 °F 7.0 °F 13% 29.99 in 10.0 mi North 8.1 mph - N/A   Clear
8:51 PM 57.0 °F 7.0 °F 14% 30.01 in 10.0 mi NW 9.2 mph - N/A   Clear
9:51 PM 55.9 °F 7.0 °F 14% 30.03 in 10.0 mi North 11.5 mph - N/A   Clear
10:51 PM 54.0 °F 9.0 °F 17% 30.05 in 10.0 mi NNW 9.2 mph - N/A   Clear
11:51 PM 51.8 °F 10.4 °F 19% 30.09 in 10.0 mi NNE 5.8 mph - N/A   Clear